Showing default

SPEKTR R, 37755

Orbit data source: Space-Track

SPEKTR R, 37755 is a Commonwealth of Independent States-origin payload satellite in HEO that was launched on Mon, 18 Jul 2011 UTC via a ZENIT-3SLBF launch vehicle from the Tyuratam Missile And Space Complex (TTMTR). Payload-class satellites include a variety of spacecraft equipped with specific instruments for various scientific and technological missions. These include communications satellites like Starlink; space stations such as the ISS; scientific satellites like the Hubble; Earth observation satellites from companies like Planet Labs, Umbra, and HawkEye 360; GPS; miniature CubeSats for education and research; and military/defense satellites.

Loading next visibility...
Identifier
37755, 2011-037A
Orbit
HEO
Country
Flag of CISCIS
Related business
Manufacturer
Lavochkin
Mission
Non-operational Civil Astronomy
Bus & Motor
NAVIGATOR, Unknown motor
Mass
3,660 kg wet, ~3,160 kg dry
Launch date (UTC)
2011-07-18 (15 years ago)
Launch vehicle
ZENIT-3SLBF
Launch site
Tyuratam Missile And Space Complex (TTMTR)
Object type
Payload
Rocket body
Debris
Shape & HBR
Box + 2 Pan + 1 Dish, 9.0 m
Radar Cross Section
18.197 m², Large (>1 m²)

Expand to show TLE details & history
Last TLE update: 1 month ago

TLE from 1 month ago
0 SPEKTR R
1 37755U 11037A   26227.43712685 -.00004443  00000-0  00000-0 0  9990
2 37755  10.7256 142.4358 9325427 168.6934   3.8309  0.11493595  5944
Epoch: 2026-08-15T10:29Z
TLE epoch observation values (Epoch: 2026-08-15T10:29:27.759Z)
Latitude
-13.86402°
Longitude
-62.60263°
Altitude
20,329.872 km
Speed
5.255 km/s
True Right ascension
03h 54m 26s
True Declination
-13° 50' 34"
Sunlit
Object was in daylight at epoch
Visualization orbit readout
Latitude
Unknown
Longitude
Unknown
Altitude
Unknown
Speed
Unknown
Apparent Right ascension
Unknown
Apparent Declination
Unknown
Sunlit
N/A
Visualization observer readout
Local Sidereal Time
03:22:04
Azimuth
Unknown
Elevation
Unknown
Doppler factor
Unknown
Orbital elements
Apogee altitude
338,955.868 km
Perigee altitude
5,676.085 km
Semi-major axis
178,694.114 km
Eccentricity
0.93254
Inclination
10.7256°
RAAN
142.4358°
Arg. of periapsis
168.6934°
True anomaly
114.9895°
Mean anomaly
3.8309°
Eccentric anomaly
32.68304°
Mean motion
0.02873 °/min
Orbital period
12,529.24 mins
BSTAR
0
Loading maneuver chart data...
Computing Atmospheric mass density...
Loading historical data...
Loading historical data...
Loading historical data...
Loading historical data...
Loading historical data...
Loading historical data...
Loading historical data...

Documentation

Showing up to 5 results
|